FW7908 Weather Reports


Display with metric or nautical units.
time (UTC)temp
F
wind
direction
speed
MPH
gust
MPH
rain 1hr
in
rain 24hr
in
rain mn
in
humidity
%
barometer
mb
20260505003052 72 206 3.0 10.0 0.00 0.00 0.00 71 1011.9
20260505001554 73 145 3.0 7.0 0.00 0.00 0.00 70 1012.1
20260504234557 74 208 4.0 10.0 0.00 0.00 0.00 67 1012.3
20260504233052 75 180 3.0 10.0 0.00 0.00 0.00 65 1012.7
20260504231620 76 124 7.0 14.0 0.00 0.00 0.00 63 1012.7
20260504230055 76 157 4.0 9.0 0.00 0.00 0.00 63 1013.0
20260504224600 76 175 5.0 12.0 0.00 0.00 0.00 64 1013.2
20260504223048 77 184 7.0 10.0 0.00 0.00 0.00 61 1013.4
20260504221644 77 178 6.0 12.0 0.00 0.00 0.00 61 1013.4
20260504220052 76 216 5.0 11.0 0.00 0.00 0.00 62 1013.6
20260504214554 78 169 6.0 14.0 0.00 0.00 0.00 60 1013.7
20260504213100 78 188 6.0 11.0 0.00 0.00 0.00 58 1013.8
20260504211554 78 159 6.0 12.0 0.00 0.00 0.00 57 1013.9
20260504210054 78 205 5.0 11.0 0.00 0.00 0.00 58 1014.3
20260504204552 79 176 4.0 15.0 0.00 0.00 0.00 57 1014.3
20260504203052 78 193 5.0 9.0 0.00 0.00 0.00 56 1014.5
20260504201548 77 199 7.0 14.0 0.00 0.00 0.00 57 1014.7
20260504200054 77 200 6.0 11.0 0.00 0.00 0.00 56 1015.1
20260504194601 78 210 7.0 11.0 0.00 0.00 0.00 54 1015.4
20260504193052 78 231 7.0 12.0 0.00 0.00 0.00 56 1015.8
20260504191610 78 173 4.0 11.0 0.00 0.00 0.00 60 1015.7
20260504190048 77 159 6.0 16.0 0.00 0.00 0.00 55 1016.0
20260504184601 77 233 6.0 16.0 0.00 0.00 0.00 56 1016.3
20260504183052 76 233 6.0 13.0 0.00 0.00 0.00 57 1016.5
20260504181552 76 199 6.0 13.0 0.00 0.00 0.00 57 1016.4
20260504180059 76 167 5.0 19.0 0.00 0.00 0.00 56 1016.5
20260504174555 75 238 8.0 16.0 0.00 0.00 0.00 56 1016.7
20260504173056 75 166 10.0 16.0 0.00 0.00 0.00 55 1016.9
20260504171556 75 203 7.0 15.0 0.00 0.00 0.00 54 1017.2
20260504140104 64 203 2.0 8.0 0.00 0.00 0.00 77 1018.1
20260504081601 51 0 0.0 0.0 0.00 0.00 0.00 95 1017.8
20260504060108 53 0 0.0 0.0 0.00 0.00 0.00 93 1019.0
20260504044550 55 0 0.0 1.0 0.00 0.00 0.00 92 1019.4
20260504043051 55 0 0.0 0.0 0.00 0.00 0.00 91 1019.3
20260504041555 56 0 0.0 0.0 0.00 0.00 0.00 91 1019.3
20260504040051 57 0 0.0 0.0 0.00 0.00 0.00 90 1019.3
20260504034556 57 0 0.0 0.0 0.00 0.00 0.00 91 1019.3
20260504033059 57 0 0.0 0.0 0.00 0.00 0.00 89 1019.4
20260504031602 58 0 0.0 0.0 0.00 0.00 0.00 88 1019.3
20260504030111 59 0 0.0 1.0 0.00 0.00 0.00 87 1019.2
20260504024551 59 0 0.0 0.0 0.00 0.00 0.00 84 1019.1
20260504023054 60 0 0.0 0.0 0.00 0.00 0.00 83 1018.9
20260504021605 61 0 0.0 0.0 0.00 0.00 0.00 81 1018.8
20260504020052 62 0 0.0 0.0 0.00 0.00 0.00 81 1018.8
20260504014556 63 0 0.0 0.0 0.00 0.00 0.00 80 1018.5
20260504013054 64 0 0.0 0.0 0.00 0.00 0.00 78 1018.5
20260504011555 66 0 0.0 0.0 0.00 0.00 0.00 74 1018.2
20260504010048 68 0 0.0 0.0 0.00 0.00 0.00 71 1018.0
20260504004551 70 0 0.0 1.0 0.00 0.00 0.00 66 1017.9